Tracking 18987 objects as of 25-Feb-2018
HD Live streaming from Space Station
objects crossing your sky now

FENGYUN 1C DEB

Track FENGYUN 1C DEB now!
10-day predictions


NORAD ID: 31181
Int'l Code: 1999-025BJK
Perigee: 847.4 km
Apogee: 925.2 km
Inclination: 99.0 °
Period: 102.5 minutes
Semi major axis: 7257 km
RCS: 0.02 m2 (small)
Launch date: May 10, 1999
Source: People's Republic of China (PRC)
Launch site: Taiyaun Space Center, China (TSC)

Note: This is SATELLITE DEBRIS
aabbcc
Your satellite tracking list
Your tracking list is empty




NASA's NSSDC Master Catalog

Two Line Element Set (TLE):
1 31181U 99025BJK 18053.08140647  .00000047  00000-0  56501-4 0  9998
2 31181  99.0273  95.1709 0053623 136.7324 286.8413 14.04231002557378
Source of the keplerian elements: AFSPC